• In Hungary
  • List of Countries
  • For 7 days
  • Water Temperature
  • Satellite Maps
  • Weather Map
  • News
  • Weather Widgets
  • user-avatar
    Login

    Hourly Weather Stirling

    Today, 17 January, Wednesday

    Time Temperature Precipitation Wind Pressure Humidity
    00:00 -1°C° 0.1 mm 4 mps 736 mmHg 78%
    01:00 -1°C° 0.1 mm 5 mps 737 mmHg 79%
    02:00 -1°C° 0.1 mm 5 mps 737 mmHg 79%
    03:00 -1°C° 0.1 mm 6 mps 738 mmHg 79%
    04:00 -1°C° 0.1 mm 6 mps 739 mmHg 77%
    05:00 -1°C° 0.1 mm 6 mps 740 mmHg 75%
    06:00 -1°C° 0.1 mm 7 mps 741 mmHg 74%
    07:00 -1°C° 0 mm 6 mps 742 mmHg 74%
    08:00 -1°C° 0 mm 6 mps 743 mmHg 74%
    09:00 -1°C° 0 mm 6 mps 744 mmHg 74%
    10:00 -1°C° 0.1 mm 6 mps 744 mmHg 75%
    11:00 +1°C° 0.1 mm 6 mps 745 mmHg 75%
    12:00 +2°C° 0.1 mm 7 mps 746 mmHg 76%
    13:00 +1°C° 0.2 mm 6 mps 746 mmHg 76%
    14:00 +1°C° 0.2 mm 6 mps 746 mmHg 76%
    15:00 +1°C° 0.2 mm 6 mps 747 mmHg 77%
    16:00 -1°C° 0 mm 6 mps 747 mmHg 78%
    17:00 0°C° 0 mm 5 mps 747 mmHg 80%
    18:00 -1°C° 0 mm 4 mps 746 mmHg 81%
    19:00 -1°C° 0.1 mm 4 mps 746 mmHg 84%
    20:00 -1°C° 0.1 mm 4 mps 745 mmHg 86%
    21:00 0°C° 0.1 mm 3 mps 745 mmHg 89%
    22:00 0°C° 0.2 mm 3 mps 744 mmHg 91%
    23:00 +1°C° 0.2 mm 2 mps 743 mmHg 93%

    Tomorrow, 18 January, Thursday

    Time Temperature Precipitation Wind Pressure Humidity
    00:00 +2°C° 0.2 mm 1 mps 742 mmHg 95%
    01:00 +2°C° 0.2 mm 1 mps 741 mmHg 95%
    02:00 +2°C° 0.2 mm 1 mps 741 mmHg 95%
    03:00 +1°C° 0.2 mm 0 mps 741 mmHg 95%
    04:00 +2°C° 0.3 mm 1 mps 741 mmHg 95%
    05:00 +2°C° 0.3 mm 1 mps 741 mmHg 96%
    06:00 +1°C° 0.3 mm 2 mps 742 mmHg 96%
    07:00 +1°C° 0.2 mm 2 mps 742 mmHg 95%
    08:00 +1°C° 0.2 mm 2 mps 742 mmHg 94%
    09:00 0°C° 0.2 mm 3 mps 742 mmHg 93%
    10:00 +1°C° 0 mm 3 mps 743 mmHg 90%
    11:00 +1°C° 0 mm 3 mps 743 mmHg 88%
    12:00 +1°C° 0 mm 4 mps 744 mmHg 86%
    13:00 +1°C° 0 mm 4 mps 744 mmHg 85%
    14:00 0°C° 0 mm 4 mps 744 mmHg 84%
    15:00 0°C° 0 mm 4 mps 744 mmHg 83%
    16:00 0°C° 0 mm 4 mps 745 mmHg 84%
    17:00 -1°C° 0 mm 4 mps 745 mmHg 85%
    18:00 -1°C° 0 mm 4 mps 745 mmHg 86%
    19:00 -1°C° 0.1 mm 4 mps 745 mmHg 87%
    20:00 -2°C° 0.1 mm 4 mps 746 mmHg 87%
    21:00 -2°C° 0.1 mm 4 mps 746 mmHg 87%
    22:00 -2°C° 0.1 mm 4 mps 746 mmHg 87%
    23:00 -2°C° 0.1 mm 4 mps 746 mmHg 87%

    Day after tomorrow, 19 January, Friday

    Time Temperature Precipitation Wind Pressure Humidity
    00:00 -1°C° 0.1 mm 4 mps 745 mmHg 87%
    01:00 -2°C° 0.2 mm 4 mps 745 mmHg 87%
    02:00 -2°C° 0.2 mm 4 mps 745 mmHg 86%
    03:00 -2°C° 0.2 mm 4 mps 745 mmHg 86%
    04:00 -2°C° 0.1 mm 4 mps 745 mmHg 86%
    05:00 -2°C° 0.1 mm 4 mps 745 mmHg 86%
    06:00 -2°C° 0.1 mm 4 mps 744 mmHg 86%
    07:00 -2°C° 0.3 mm 4 mps 744 mmHg 86%
    08:00 -1°C° 0.3 mm 4 mps 744 mmHg 86%
    09:00 -1°C° 0.3 mm 4 mps 744 mmHg 86%
    10:00 0°C° 0.1 mm 5 mps 744 mmHg 82%
    11:00 0°C° 0.1 mm 5 mps 745 mmHg 78%
    12:00 +1°C° 0.1 mm 6 mps 745 mmHg 75%
    13:00 +1°C° 0.1 mm 6 mps 745 mmHg 76%
    14:00 +1°C° 0.1 mm 5 mps 745 mmHg 77%
    15:00 0°C° 0.1 mm 5 mps 745 mmHg 78%
    16:00 0°C° 0.2 mm 5 mps 746 mmHg 80%
    17:00 0°C° 0.2 mm 5 mps 746 mmHg 81%
    18:00 0°C° 0.2 mm 4 mps 747 mmHg 83%
    19:00 -1°C° 0 mm 4 mps 747 mmHg 82%
    20:00 -1°C° 0 mm 4 mps 748 mmHg 82%
    21:00 -2°C° 0 mm 4 mps 748 mmHg 81%
    22:00 -1°C° 0.1 mm 4 mps 748 mmHg 82%
    23:00 -1°C° 0.1 mm 4 mps 748 mmHg 83%

    20 January, Saturday

    Time Temperature Precipitation Wind Pressure Humidity
    00:00 -1°C° 0.1 mm 4 mps 748 mmHg 84%
    01:00 -1°C° 0.1 mm 4 mps 749 mmHg 84%
    02:00 -1°C° 0.1 mm 4 mps 749 mmHg 83%
    03:00 -1°C° 0.1 mm 4 mps 749 mmHg 83%
    04:00 -2°C° 0 mm 4 mps 749 mmHg 83%
    05:00 -2°C° 0 mm 4 mps 749 mmHg 84%
    06:00 -2°C° 0 mm 3 mps 750 mmHg 84%
    07:00 -2°C° 0 mm 3 mps 750 mmHg 83%
    08:00 -2°C° 0 mm 3 mps 751 mmHg 82%
    09:00 -2°C° 0 mm 3 mps 752 mmHg 82%
    10:00 -1°C° 0 mm 3 mps 753 mmHg 80%
    11:00 0°C° 0 mm 3 mps 753 mmHg 79%
    12:00 +1°C° 0 mm 3 mps 754 mmHg 77%
    13:00 +1°C° 0 mm 3 mps 754 mmHg 78%
    14:00 0°C° 0 mm 3 mps 755 mmHg 80%
    15:00 +1°C° 0 mm 2 mps 755 mmHg 81%
    16:00 -1°C° 0 mm 2 mps 756 mmHg 82%
    17:00 0°C° 0 mm 1 mps 756 mmHg 83%
    18:00 -1°C° 0 mm 1 mps 757 mmHg 84%
    19:00 0°C° 0 mm 1 mps 757 mmHg 83%
    20:00 0°C° 0 mm 1 mps 757 mmHg 83%
    21:00 0°C° 0 mm 1 mps 757 mmHg 82%
    22:00 +1°C° 0 mm 1 mps 757 mmHg 83%
    23:00 +1°C° 0 mm 1 mps 757 mmHg 84%

    21 January, Sunday

    Time Temperature Precipitation Wind Pressure Humidity
    00:00 -1°C° 0 mm 2 mps 757 mmHg 85%
    01:00 -1°C° 0.5 mm 2 mps 756 mmHg 87%
    02:00 -1°C° 0.5 mm 3 mps 755 mmHg 90%
    03:00 -2°C° 0.5 mm 4 mps 755 mmHg 92%
    04:00 -1°C° 1 mm 5 mps 754 mmHg 92%
    05:00 -2°C° 1 mm 6 mps 753 mmHg 92%
    06:00 -2°C° 1 mm 6 mps 752 mmHg 91%
    07:00 -2°C° 1.3 mm 6 mps 751 mmHg 93%
    08:00 -1°C° 1.3 mm 5 mps 751 mmHg 94%
    09:00 -1°C° 1.3 mm 5 mps 750 mmHg 95%
    10:00 0°C° 0.9 mm 4 mps 750 mmHg 96%
    11:00 0°C° 0.9 mm 4 mps 749 mmHg 97%
    12:00 +1°C° 0.9 mm 3 mps 749 mmHg 98%
    13:00 +1°C° 1.4 mm 3 mps 748 mmHg 99%
    14:00 +3°C° 1.4 mm 2 mps 748 mmHg 99%
    15:00 +3°C° 1.4 mm 2 mps 747 mmHg 99%
    16:00 +3°C° 1 mm 2 mps 748 mmHg 99%
    17:00 +2°C° 1 mm 3 mps 748 mmHg 98%
    18:00 +1°C° 1 mm 4 mps 749 mmHg 98%
    19:00 +1°C° 0 mm 4 mps 750 mmHg 96%
    20:00 +1°C° 0 mm 4 mps 751 mmHg 95%
    21:00 +1°C° 0 mm 4 mps 752 mmHg 94%
    22:00 +1°C° 0 mm 4 mps 753 mmHg 93%
    23:00 +1°C° 0 mm 3 mps 754 mmHg 92%

    22 January, Monday

    Time Temperature Precipitation Wind Pressure Humidity
    00:00 +1°C° 0 mm 3 mps 755 mmHg 91%
    01:00 0°C° 0 mm 3 mps 755 mmHg 91%
    02:00 0°C° 0 mm 3 mps 756 mmHg 91%
    03:00 +1°C° 0 mm 2 mps 756 mmHg 91%
    04:00 +1°C° 0 mm 2 mps 756 mmHg 91%
    05:00 +1°C° 0 mm 2 mps 757 mmHg 91%
    06:00 -1°C° 0 mm 2 mps 757 mmHg 91%
    07:00 -1°C° 0 mm 2 mps 757 mmHg 91%
    08:00 -1°C° 0 mm 2 mps 757 mmHg 91%
    09:00 -1°C° 0 mm 2 mps 757 mmHg 92%
    10:00 +1°C° 0 mm 2 mps 757 mmHg 93%
    11:00 +2°C° 0 mm 2 mps 757 mmHg 95%
    12:00 +3°C° 0 mm 2 mps 757 mmHg 96%
    13:00 +3°C° 0 mm 2 mps 756 mmHg 96%
    14:00 +2°C° 0 mm 3 mps 755 mmHg 96%
    15:00 +2°C° 0 mm 3 mps 755 mmHg 96%
    16:00 +2°C° 0 mm 3 mps 754 mmHg 96%
    17:00 +2°C° 0 mm 2 mps 754 mmHg 96%
    18:00 +2°C° 0 mm 2 mps 753 mmHg 96%
    19:00 +2°C° 0 mm 2 mps 752 mmHg 96%
    20:00 +2°C° 0 mm 2 mps 752 mmHg 96%
    21:00 +2°C° 0 mm 2 mps 751 mmHg 96%
    22:00 +2°C° 0 mm 2 mps 750 mmHg 96%
    23:00 +2°C° 0 mm 2 mps 749 mmHg 97%
    Show more